Weather History for Gillette, WY

Change the Weather History Date:

Friday, October 28, 2011

  Actual Average Record
Temperature  
Mean Temperature 38 °F 41 °F  
Max Temperature 53 °F 54 °F 78 °F (1937)
Min Temperature 23 °F 28 °F -12 °F (1925)
Degree Days  
Heating Degree Days 27 24  
Month to date heating degree days 467 541  
Since 1 July heating degree days 629 836  
Cooling Degree Days 0 0  
Month to date cooling degree days 20 0  
Year to date cooling degree days 561 500  
Moisture  
Dew Point 17 °F    
Average Humidity 48    
Maximum Humidity 75    
Minimum Humidity 21    
Precipitation  
Precipitation 0.00 in 0.03 in 1.30 in (1998)
Month to date precipitation 0.90 1.20  
Year to date precipitation 15.84 12.87  
Sea Level Pressure  
Sea Level Pressure 30.17 in    
Wind  
Wind Speed 6 mph (SW)    
Max Wind Speed 14 mph    
Max Gust Speed 17 mph    
Visibility 10 miles    
Events      
T = Trace of Precipitation, MM = Missing Value Source: NWS Daily Summary

Daily Weather History Graph

Daily Weather History Graph

Search for Another Location

Airport:

Trip Planner

Search our weather history database for the weather conditions in past years. The results will help you decide how hot, cold, wet, or windy it might be!

Date:

Astronomy

Oct. 28, 2011 Rise Set
Actual Time 7:33 AM MDT 5:57 PM MDT
Civil Twilight 7:03 AM MDT 6:27 PM MDT
Nautical Twilight 6:29 AM MDT 7:01 PM MDT
Astronomical Twilight 5:55 AM MDT 7:35 PM MDT
Moon 9:59 AM MDT (10/28) 7:15 PM MDT (10/28)
Length of Visible Light 11h 23m
Length of Day
10h 23m
Waxing Crescent, 5% of the Moon is Illuminated
Oct 28
Waxing Crescent
Nov 2
First Quarter
Nov 10
Full
Nov 18
Last Quarter
Nov 24
New

Hourly Weather History & Observations

Time (MDT) Temp. Windchill Dew Point Humidity Pressure Visibility Wind Dir Wind Speed Gust Speed Precip Events Conditions
12:53 AM 25.0 °F 18.1 °F 18.0 °F 75% 30.22 in 10.0 mi South 5.8 mph - N/A   Mostly Cloudy
1:53 AM 28.9 °F - 21.0 °F 72% 30.23 in 10.0 mi Calm Calm - N/A   Overcast
2:53 AM 30.0 °F 24.1 °F 19.9 °F 66% 30.25 in 10.0 mi NNE 5.8 mph - N/A   Overcast
3:53 AM 27.0 °F 20.5 °F 19.0 °F 72% 30.24 in 10.0 mi SW 5.8 mph - N/A   Overcast
4:53 AM 28.0 °F - 18.0 °F 66% 30.25 in 10.0 mi Calm Calm - N/A   Overcast
5:53 AM 30.0 °F 23.2 °F 19.0 °F 64% 30.27 in 10.0 mi SW 6.9 mph - N/A   Scattered Clouds
6:53 AM 30.0 °F 23.2 °F 18.0 °F 61% 30.28 in 10.0 mi WSW 6.9 mph - N/A   Clear
7:53 AM 28.9 °F 21.1 °F 18.0 °F 64% 30.30 in 10.0 mi West 8.1 mph - N/A   Clear
8:53 AM 36.0 °F 29.0 °F 19.0 °F 50% 30.31 in 10.0 mi WSW 9.2 mph - N/A   Clear
9:53 AM 41.0 °F 35.2 °F 19.9 °F 43% 30.31 in 10.0 mi West 9.2 mph - N/A   Clear
10:53 AM 44.1 °F 39.0 °F 19.0 °F 37% 30.28 in 10.0 mi West 9.2 mph - N/A   Clear
11:53 AM 46.0 °F 41.4 °F 16.0 °F 30% 30.27 in 10.0 mi SW 9.2 mph - N/A   Clear
12:53 PM 48.0 °F - 16.0 °F 28% 30.22 in 10.0 mi SSW 9.2 mph - N/A   Clear
1:53 PM 50.0 °F - 14.0 °F 24% 30.17 in 10.0 mi Variable 3.5 mph - N/A   Clear
2:53 PM 51.1 °F - 12.0 °F 21% 30.13 in 10.0 mi Variable 3.5 mph - N/A   Clear
3:53 PM 52.0 °F - 12.0 °F 20% 30.12 in 10.0 mi WSW 4.6 mph - N/A   Clear
4:53 PM 51.1 °F - 15.1 °F 24% 30.11 in 10.0 mi NW 4.6 mph - N/A   Clear
5:53 PM 39.0 °F 36.8 °F 19.9 °F 46% 30.12 in 10.0 mi South 3.5 mph - N/A   Clear
6:53 PM 42.1 °F 37.1 °F 19.0 °F 40% 30.09 in 10.0 mi South 8.1 mph - N/A   Clear
7:53 PM 39.9 °F 36.7 °F 18.0 °F 41% 30.08 in 10.0 mi South 4.6 mph - N/A   Clear
8:53 PM 35.1 °F 29.3 °F 16.0 °F 46% 30.05 in 10.0 mi SSE 6.9 mph - N/A   Clear
9:53 PM 37.9 °F 31.5 °F 14.0 °F 38% 30.00 in 10.0 mi SSE 9.2 mph - N/A   Clear
10:53 PM 36.0 °F 32.1 °F 12.9 °F 39% 29.97 in 10.0 mi SSW 4.6 mph - N/A   Clear
11:53 PM 42.1 °F 37.7 °F 12.0 °F 29% 29.92 in 10.0 mi SW 6.9 mph - N/A   Clear